Location: Noulens
(43.8099°N, 0.1664°E)
Time: 07:40:51
(UTC+00:00)

SL-08 R/B - Pass Details

Date: 07 June 2020
Orbit: 674 x 739 km, 98.4° (Epoch: 04 July)

Event Time Altitude Azimuth Distance (km) Brightness Sun altitude
Exits shadow 03:33:59 - 199° (SSW) 2,561 5.7 -7.1°
Reaches altitude 10° 03:35:15 10° 206° (SSW) 2,116 5.2 -6.9°
Maximum altitude 03:39:09 27° 264° (W) 1,296 4.3 -6.4°
Drops below altitude 10° 03:43:05 10° 323° (NW) 2,117 5.8 -5.8°
Sets 03:45:38 0° 335° (NNW) 3,036 6.8 -5.5°
